DL2AMT-9 Weather Reports


time (UTC)temp
C
wind
direction
speed
KPH
gust
KPH
rain 1hr
cm
rain 24hr
cm
rain mn
cm
humidity
%
barometer
mb
20260508134904 32 0.0 0.0 0.00 0.00 0.00 25 964.5
20260508113817 31 0.0 0.0 0.00 0.00 0.00 30 980.3
20260508113317 31 0.0 0.0 0.00 0.00 0.00 30 991.3
20260508112316 31 0.0 0.0 0.00 0.00 0.00 30 986.6
20260508111305 30 0.0 0.0 0.00 0.00 0.00 31 976.6
20260508110255 30 0.0 0.0 0.00 0.00 0.00 31 995.5
20260508105755 30 0.0 0.0 0.00 0.00 0.00 32 991.1
20260508105255 31 0.0 0.0 0.00 0.00 0.00 32 974.5
20260508104754 31 0.0 0.0 0.00 0.00 0.00 32 991.0
20260508104242 30 0.0 0.0 0.00 0.00 0.00 33 993.8
20260508103742 30 0.0 0.0 0.00 0.00 0.00 33 993.8
20260508103242 30 0.0 0.0 0.00 0.00 0.00 33 994.0
20260508102742 30 0.0 0.0 0.00 0.00 0.00 33 993.1
20260508102228 30 0.0 0.0 0.00 0.00 0.00 33 992.2
20260508101724 29 0.0 0.0 0.00 0.00 0.00 35 990.6
20260508101224 29 0.0 0.0 0.00 0.00 0.00 35 990.7
20260508100724 28 0.0 0.0 0.00 0.00 0.00 35 990.7
20260508100224 28 0.0 0.0 0.00 0.00 0.00 35 990.7
20260508095724 28 0.0 0.0 0.00 0.00 0.00 35 990.7
20260508095223 28 0.0 0.0 0.00 0.00 0.00 35 990.8
20260508094723 28 0.0 0.0 0.00 0.00 0.00 34 990.8
20260508094222 28 0.0 0.0 0.00 0.00 0.00 34 989.7
20260508093722 28 0.0 0.0 0.00 0.00 0.00 34 992.1
20260508093222 27 0.0 0.0 0.00 0.00 0.00 35 992.9
20260508092722 27 0.0 0.0 0.00 0.00 0.00 34 992.5
20260508092218 27 0.0 0.0 0.00 0.00 0.00 35 989.0
20260508091712 27 0.0 0.0 0.00 0.00 0.00 35 987.4
20260508091204 26 0.0 0.0 0.00 0.00 0.00 35 991.3
20260508090704 25 0.0 0.0 0.00 0.00 0.00 36 991.1
20260508085704 24 0.0 0.0 0.00 0.00 0.00 37 987.6
20260508085204 23 0.0 0.0 0.00 0.00 0.00 36 987.7
20260508084704 23 0.0 0.0 0.00 0.00 0.00 37 988.4
20260508084203 23 0.0 0.0 0.00 0.00 0.00 36 988.4
20260508081151 21 0.0 0.0 0.00 0.00 0.00 35 979.2
20260508080651 21 0.0 0.0 0.00 0.00 0.00 35 979.2
20260508075637 21 0.0 0.0 0.00 0.00 0.00 33 973.7
20260508075129 20 0.0 0.0 0.00 0.00 0.00 33 973.2
20260508074629 22 0.0 0.0 0.00 0.00 0.00 33 973.2
20260508074129 23 0.0 0.0 0.00 0.00 0.00 32 973.2
20260508073629 27 0.0 0.0 0.00 0.00 0.00 32 973.3
20260508073129 29 0.0 0.0 0.00 0.00 0.00 36 973.2
20260508072629 28 0.0 0.0 0.00 0.00 0.00 35 973.1
20260508072129 28 0.0 0.0 0.00 0.00 0.00 35 973.2
20260508071629 28 0.0 0.0 0.00 0.00 0.00 36 973.1
20260508071129 28 0.0 0.0 0.00 0.00 0.00 36 973.0
20260508070629 28 0.0 0.0 0.00 0.00 0.00 36 973.0
20260508070129 28 0.0 0.0 0.00 0.00 0.00 36 972.9
20260508065629 29 0.0 0.0 0.00 0.00 0.00 35 972.9
20260508065129 30 0.0 0.0 0.00 0.00 0.00 37 972.9
20260508064628 30 0.0 0.0 0.00 0.00 0.00 39 972.9
20260508064128 28 0.0 0.0 0.00 0.00 0.00 36 972.8
20260508063628 28 0.0 0.0 0.00 0.00 0.00 36 972.8
20260508063128 28 0.0 0.0 0.00 0.00 0.00 36 972.7
20260508062628 29 0.0 0.0 0.00 0.00 0.00 36 972.6
20260508062129 29 0.0 0.0 0.00 0.00 0.00 36 972.6
20260508061628 29 0.0 0.0 0.00 0.00 0.00 36 972.5
20260508061128 28 0.0 0.0 0.00 0.00 0.00 36 972.4
20260508060628 28 0.0 0.0 0.00 0.00 0.00 36 972.5
20260508060128 28 0.0 0.0 0.00 0.00 0.00 35 972.4
20260508055628 28 0.0 0.0 0.00 0.00 0.00 36 972.5
20260508055128 28 0.0 0.0 0.00 0.00 0.00 35 972.4
20260508054628 28 0.0 0.0 0.00 0.00 0.00 35 972.4
20260508054128 28 0.0 0.0 0.00 0.00 0.00 35 972.3
20260508053628 28 0.0 0.0 0.00 0.00 0.00 36 972.4
20260508053128 28 0.0 0.0 0.00 0.00 0.00 35 972.5
20260508052628 28 0.0 0.0 0.00 0.00 0.00 36 972.4
20260508052128 28 0.0 0.0 0.00 0.00 0.00 36 972.3
20260508051628 28 0.0 0.0 0.00 0.00 0.00 36 972.3
20260508051128 28 0.0 0.0 0.00 0.00 0.00 35 972.3
20260508050628 28 0.0 0.0 0.00 0.00 0.00 35 972.3
20260508050128 28 0.0 0.0 0.00 0.00 0.00 35 972.3
20260508045628 28 0.0 0.0 0.00 0.00 0.00 36 972.2
20260508045128 28 0.0 0.0 0.00 0.00 0.00 35 972.2
20260508044628 28 0.0 0.0 0.00 0.00 0.00 35 972.1
20260508044128 28 0.0 0.0 0.00 0.00 0.00 36 972.0
20260508043628 28 0.0 0.0 0.00 0.00 0.00 36 972.0
20260508043127 28 0.0 0.0 0.00 0.00 0.00 35 972.0
20260508042628 28 0.0 0.0 0.00 0.00 0.00 35 971.9
20260508042127 28 0.0 0.0 0.00 0.00 0.00 35 971.9
20260508041627 28 0.0 0.0 0.00 0.00 0.00 36 971.9
20260508041128 28 0.0 0.0 0.00 0.00 0.00 35 971.9
20260508040628 28 0.0 0.0 0.00 0.00 0.00 36 971.9
20260508040127 28 0.0 0.0 0.00 0.00 0.00 36 971.8
20260508035627 28 0.0 0.0 0.00 0.00 0.00 36 971.8
20260508035127 28 0.0 0.0 0.00 0.00 0.00 36 971.8
20260508034627 28 0.0 0.0 0.00 0.00 0.00 35 971.7
20260508034128 28 0.0 0.0 0.00 0.00 0.00 36 971.7
20260508033628 28 0.0 0.0 0.00 0.00 0.00 35 971.8
20260508033127 28 0.0 0.0 0.00 0.00 0.00 35 971.8
20260508032628 28 0.0 0.0 0.00 0.00 0.00 35 971.7
20260508032128 28 0.0 0.0 0.00 0.00 0.00 35 971.7
20260508031627 28 0.0 0.0 0.00 0.00 0.00 35 971.7
20260508031127 28 0.0 0.0 0.00 0.00 0.00 35 971.8
20260508030628 28 0.0 0.0 0.00 0.00 0.00 35 971.8
20260508030128 28 0.0 0.0 0.00 0.00 0.00 36 971.7
20260508025628 28 0.0 0.0 0.00 0.00 0.00 36 971.7
20260508025127 28 0.0 0.0 0.00 0.00 0.00 35 971.8
20260508024627 28 0.0 0.0 0.00 0.00 0.00 35 971.7
20260508024127 28 0.0 0.0 0.00 0.00 0.00 35 971.8
20260508023627 28 0.0 0.0 0.00 0.00 0.00 35 971.8
20260508023127 28 0.0 0.0 0.00 0.00 0.00 35 971.7
20260508022627 28 0.0 0.0 0.00 0.00 0.00 35 971.8
20260508022127 28 0.0 0.0 0.00 0.00 0.00 36 971.8
20260508021627 28 0.0 0.0 0.00 0.00 0.00 35 971.8
20260508021127 28 0.0 0.0 0.00 0.00 0.00 35 971.9
20260508020627 28 0.0 0.0 0.00 0.00 0.00 36 971.9
20260508020126 28 0.0 0.0 0.00 0.00 0.00 36 971.8
20260508015627 28 0.0 0.0 0.00 0.00 0.00 36 971.8
20260508015126 28 0.0 0.0 0.00 0.00 0.00 36 971.8
20260508014626 28 0.0 0.0 0.00 0.00 0.00 36 971.8
20260508014126 28 0.0 0.0 0.00 0.00 0.00 35 971.7
20260508013626 28 0.0 0.0 0.00 0.00 0.00 36 971.7
20260508013126 28 0.0 0.0 0.00 0.00 0.00 36 971.7
20260508012626 28 0.0 0.0 0.00 0.00 0.00 36 971.7
20260508012125 28 0.0 0.0 0.00 0.00 0.00 35 971.7
20260508011626 28 0.0 0.0 0.00 0.00 0.00 35 971.7
20260508011126 28 0.0 0.0 0.00 0.00 0.00 35 971.8
20260508010625 28 0.0 0.0 0.00 0.00 0.00 35 971.8
20260508010125 28 0.0 0.0 0.00 0.00 0.00 36 971.8
20260508005625 28 0.0 0.0 0.00 0.00 0.00 35 971.8
20260508005126 28 0.0 0.0 0.00 0.00 0.00 35 971.8
20260508004626 28 0.0 0.0 0.00 0.00 0.00 35 971.8
20260508004125 28 0.0 0.0 0.00 0.00 0.00 36 971.8
20260508003625 28 0.0 0.0 0.00 0.00 0.00 35 971.8
20260508003126 28 0.0 0.0 0.00 0.00 0.00 35 971.8
20260508002625 28 0.0 0.0 0.00 0.00 0.00 35 971.8
20260508002125 28 0.0 0.0 0.00 0.00 0.00 36 971.8
20260508001625 28 0.0 0.0 0.00 0.00 0.00 35 971.8
20260508001126 28 0.0 0.0 0.00 0.00 0.00 35 971.9
20260508000626 29 0.0 0.0 0.00 0.00 0.00 35 971.9
20260508000126 28 0.0 0.0 0.00 0.00 0.00 35 971.8
20260507235626 28 0.0 0.0 0.00 0.00 0.00 35 971.9
20260507235125 28 0.0 0.0 0.00 0.00 0.00 36 971.9
20260507234625 28 0.0 0.0 0.00 0.00 0.00 35 971.9
20260507234126 28 0.0 0.0 0.00 0.00 0.00 35 971.9
20260507233626 28 0.0 0.0 0.00 0.00 0.00 36 971.9
20260507233125 28 0.0 0.0 0.00 0.00 0.00 35 971.9
20260507232625 28 0.0 0.0 0.00 0.00 0.00 35 971.9
20260507232125 28 0.0 0.0 0.00 0.00 0.00 35 971.9
20260507231625 28 0.0 0.0 0.00 0.00 0.00 35 971.9
20260507231125 28 0.0 0.0 0.00 0.00 0.00 35 971.9
20260507230625 28 0.0 0.0 0.00 0.00 0.00 36 971.9
20260507230125 28 0.0 0.0 0.00 0.00 0.00 36 971.9
20260507225625 28 0.0 0.0 0.00 0.00 0.00 35 971.9
20260507225125 28 0.0 0.0 0.00 0.00 0.00 35 971.8
20260507224625 28 0.0 0.0 0.00 0.00 0.00 35 971.8
20260507224125 28 0.0 0.0 0.00 0.00 0.00 36 971.8
20260507223625 28 0.0 0.0 0.00 0.00 0.00 35 971.8
20260507223124 28 0.0 0.0 0.00 0.00 0.00 36 971.8
20260507222624 28 0.0 0.0 0.00 0.00 0.00 35 971.7
20260507222125 28 0.0 0.0 0.00 0.00 0.00 35 971.8
20260507221624 28 0.0 0.0 0.00 0.00 0.00 35 971.8
20260507221124 28 0.0 0.0 0.00 0.00 0.00 35 971.9
20260507220624 28 0.0 0.0 0.00 0.00 0.00 35 971.8
20260507220124 28 0.0 0.0 0.00 0.00 0.00 35 971.7
20260507215624 28 0.0 0.0 0.00 0.00 0.00 35 971.8
20260507215124 28 0.0 0.0 0.00 0.00 0.00 35 971.9
20260507214624 28 0.0 0.0 0.00 0.00 0.00 35 971.7
20260507214124 29 0.0 0.0 0.00 0.00 0.00 35 971.7
20260507213625 28 0.0 0.0 0.00 0.00 0.00 35 971.7
20260507213124 29 0.0 0.0 0.00 0.00 0.00 35 971.8
20260507212624 29 0.0 0.0 0.00 0.00 0.00 35 971.8
20260507212124 29 0.0 0.0 0.00 0.00 0.00 35 971.9
20260507211624 29 0.0 0.0 0.00 0.00 0.00 35 971.8
20260507211124 29 0.0 0.0 0.00 0.00 0.00 35 971.6
20260507210624 29 0.0 0.0 0.00 0.00 0.00 35 971.7
20260507210124 29 0.0 0.0 0.00 0.00 0.00 35 971.7
20260507205624 29 0.0 0.0 0.00 0.00 0.00 35 971.6
20260507205118 29 0.0 0.0 0.00 0.00 0.00 35 971.5
20260507204617 29 0.0 0.0 0.00 0.00 0.00 35 971.6
20260507204154 29 0.0 0.0 0.00 0.00 0.00 35 971.6
20260507203617 29 0.0 0.0 0.00 0.00 0.00 35 971.5
20260507203117 29 0.0 0.0 0.00 0.00 0.00 35 971.5
20260507202617 29 0.0 0.0 0.00 0.00 0.00 35 971.4
20260507202117 29 0.0 0.0 0.00 0.00 0.00 35 971.5
20260507201617 29 0.0 0.0 0.00 0.00 0.00 35 971.5
20260507201116 29 0.0 0.0 0.00 0.00 0.00 35 971.4
20260507200616 29 0.0 0.0 0.00 0.00 0.00 35 971.3
20260507200117 29 0.0 0.0 0.00 0.00 0.00 35 971.3
20260507195617 29 0.0 0.0 0.00 0.00 0.00 35 971.3
20260507195116 29 0.0 0.0 0.00 0.00 0.00 35 971.3
20260507194616 29 0.0 0.0 0.00 0.00 0.00 35 971.2
20260507194116 29 0.0 0.0 0.00 0.00 0.00 35 971.2
20260507193616 29 0.0 0.0 0.00 0.00 0.00 34 971.2
20260507193116 29 0.0 0.0 0.00 0.00 0.00 35 971.1
20260507192616 29 0.0 0.0 0.00 0.00 0.00 35 971.1
20260507192115 29 0.0 0.0 0.00 0.00 0.00 35 971.2
20260507191615 29 0.0 0.0 0.00 0.00 0.00 34 971.1
20260507191115 29 0.0 0.0 0.00 0.00 0.00 34 971.1
20260507190615 29 0.0 0.0 0.00 0.00 0.00 34 971.1
20260507190115 29 0.0 0.0 0.00 0.00 0.00 35 970.9
20260507185616 30 0.0 0.0 0.00 0.00 0.00 34 970.9
20260507185115 30 0.0 0.0 0.00 0.00 0.00 34 970.8